Weather in Hardenberg

Netherlands     52°34′36″N   6°37′48″E
temp.,
°C
wind,
m/s
gust,
m/s
humid.,
%
clouds,
%
prec.,
mm/h
press.,
hPa
HPBL,
m
4 july, mon
mon423:00+13wnw34880 0.1 101955
02:00+11w22925 0.1 101928
05:00+11wsw349444 0.0 102058
08:00+15sw46765 0.0 1020293
11:00+20wsw575725 0.1 10191637
14:00+20w5757100 0.2 1019895
17:00+22wnw674546 0.0 10191923
20:00+19nw57600 0.0 1019690
5 july, tue
tue523:00+13nnw33830 0.0 102038
02:00+12sw11885 0.0 102010
05:00+11sw229098 0.0 102025
08:00+14sw247798 0.0 1021161
11:00+19w4655100 0.0 10211532
14:00+19wnw5757100 0.2 10211093
17:00+19nw775246 0.0 10221492
20:00+17wnw566129 0.0 10231100
6 july, wed
wed623:00+11wnw36862 0.0 102495
02:00+10wnw359164 0.0 102579
05:00+9w349371 0.0 102556
08:00+13w357635 0.0 1025282
11:00+18w4556100 0.0 10241290
14:00+20wsw6849100 0.0 10231856
17:00+17w6973100 0.2 1022808
20:00+15wsw51197100 2.4 1021585
7 july, thu
thu723:00+15w51197100 0.4 1020558
02:00+14wsw5119797 0.6 1019399
05:00+15wsw51198100 0.8 1017519
08:00+16wnw71293100 3.0 1017848
11:00+16nw71185100 0.4 1019858
14:00+19nnw91163100 1.0 10211481
17:00+19nnw911515 0.0 10231659
20:00+15nw61067100 0.1 10251456
8 july, fri
fri823:00+15nnw6105582 0.0 10261370
02:00+10wnw49881 0.0 1027194
05:00+10wnw38932 0.0 1028153
08:00+15nw487711 0.0 1028586
11:00+16wnw5775100 0.0 1028771
14:00+17nnw5770100 0.1 1029900
17:00+19nw3670100 0.0 1028972
20:00+18wnw5773100 0.2 1027602